Temp
26 26 25 25 25 25 25 25 26 26 27 27 27 27 27 27 28 27 27 27 26 26 27 27 26 28 27 28 30 30 30 31 25 23 25 24 24 28 29 30 30 29 29
25 25 25 25 24 23 23 24 25 25 25 25 25 25 25 25 26 26 25 25 25 24 25 26 25 26 25 26 26 25 26 29 27 22 22 23 28 29 28 26 28 29 28
24 25 24 24 24 23 23 24 24 24 24 25 25 25 25 25 25 25 25 24 24 23 23 23 24 24 23 24 25 25 26 28 26 24 23 26 26 24 22 25 25 24 27
24 24 23 24 24 24 24 24 25 25 24 25 24 24 25 25 25 25 25 24 24 24 24 24 24 23 22 22 22 23 24 25 25 23 23 23 23 24 22 20 19 21 22
24 23 23 24 24 24 24 25 25 25 25 26 25 26 26 25 25 24 23 22 22 21 22 24 24 26 29 27 24 24 25 24 24 23 22 22 21 20 18 19 18 18 20
23 23 24 24 24 24 24 24 24 25 25 25 25 25 26 27 30 29 25 22 23 22 21 21 23 24 27 29 28 28 27 24 22 22 20 19 19 18 19 17 16 13 11
22 23 23 23 23 23 24 24 23 23 24 23 23 24 24 26 30 29 27 23 23 23 24 25 25 25 25 25 27 27 26 27 26 22 19 18 17 19 19 16 16 14 14
22 22 23 23 23 24 23 23 23 24 22 23 23 23 24 28 31 30 27 24 23 23 24 25 24 25 26 25 24 23 23 22 22 23 20 20 20 21 19 19 16 13 14
21 21 22 23 22 23 22 22 23 23 23 23 25 24 23 26 30 30 28 25 24 23 23 22 24 24 28 28 24 21 20 22 25 26 26 26 26 26 24 14 2 -0 -1
20 21 21 21 21 20 21 21 22 23 24 25 25 24 24 25 30 30 28 25 23 22 23 23 25 25 27 27 22 20 15 18 18 15 16 17 19 17 21 15 8 -3 -3
21 22 22 22 21 21 21 21 21 21 21 19 20 20 21 23 26 29 29 25 23 21 21 19 20 24 27 26 26 19 18 20 15 8 9 10 11 12 12 13 12 8 -1
19 19 17 15 21 20 13 16 16 15 15 14 14 16 18 21 26 27 28 27 26 20 20 19 19 25 27 26 23 24 25 19 6 4 3 7 8 8 9 9 9 9 11
12 9 11 14 18 18 12 14 14 13 13 14 16 13 14 19 19 26 26 26 26 21 20 21 25 25 24 20 22 23 15 7 4 0 4 8 8 8 6 4 8 7 8
8 10 11 11 13 13 18 18 14 13 12 15 14 13 12 14 16 17 18 17 24 22 22 14 19 22 23 20 11 14 10 8 6 6 7 8 8 6 7 8 6 7 5
11 13 12 13 11 13 16 14 17 17 18 11 12 13 10 11 17 23 21 15 14 20 8 6 6 7 7 8 8 8 6 6 6 6 5 5 7 7 7 8 6 4 1
13 13 13 13 11 13 12 12 25 27 28 28 28 21 16 25 28 29 28 28 29 29 6 4 5 7 9 9 9 9 8 8 9 9 8 7 7 6 6 6 5 3 1
12 13 13 14 13 13 12 11 11 16 29 29 29 29 29 26 27 28 28 29 29 28 15 8 11 11 12 10 11 10 10 8 10 8 8 7 5 4 3 3 3 3 1
9 11 13 13 14 12 13 13 12 11 13 14 23 28 30 30 30 31 30 30 21 22 17 16 15 15 13 11 11 10 11 10 5 8 6 6 5 5 4 2 2 1 1
11 14 13 11 13 14 13 13 14 13 15 16 7 22 23 30 30 31 31 23 20 19 18 17 17 16 14 12 11 11 10 10 9 7 6 6 7 5 3 2 2 1 0
12 13 13 15 15 12 12 13 13 14 15 16 15 17 6 4 11 17 18 19 19 19 19 17 19 19 16 14 12 11 10 9 8 8 6 7 6 4 3 2 1 0 0
13 13 15 15 15 15 16 15 16 16 17 17 18 18 20 13 15 15 16 16 17 17 17 18 18 18 17 15 13 12 10 10 10 8 8 8 8 6 5 3 2 1 0
15 14 13 14 15 15 16 17 16 15 16 16 18 18 26 22 20 18 17 18 19 19 19 18 17 17 17 16 15 13 10 9 9 9 8 8 7 6 4 2 1 0 -1
16 16 15 14 14 13 14 16 16 16 17 17 17 17 17 18 20 19 19 20 20 18 18 17 17 16 17 17 17 15 13 12 11 11 10 9 7 5 3 1 -0 -1 -2
16 16 17 17 16 15 15 15 16 15 16 16 16 17 17 17 17 18 18 19 18 17 18 18 18 16 16 16 15 13 12 12 11 10 10 8 5 3 1 -1 -2 -3 -3
13 15 16 17 17 17 16 16 15 15 15 15 15 15 16 17 18 17 17 17 17 16 16 15 15 15 15 14 14 14 12 13 12 11 10 3 1 0 -0 -1 -2 -1 -1
11 8 12 13 15 16 17 16 16 17 16 16 16 16 17 17 17 16 17 17 15 14 13 14 15 14 14 14 13 13 12 13 11 11 9 5 2 0 -1 -2 -2 -2 -1
MSLP
1016.59 1016.11 1015.62 1015.30 1015.15 1014.90 1014.98 1014.84 1014.79 1015.07 1014.80 1014.22 1014.07 1014.38 1014.47 1014.49 1014.71 1014.49 1015.06 1015.86 1015.54 1016.26 1016.00 1016.69 1016.35 1017.09 1017.27 1016.67 1016.66 1017.33 1017.74 1018.11 1020.11 1022.69 1023.50 1023.93 1024.71 1024.57 1024.63 1024.61 1024.69 1024.73 1024.75
1016.83 1016.35 1015.92 1015.70 1015.41 1015.47 1015.34 1015.42 1015.62 1015.47 1015.09 1014.90 1014.97 1015.14 1015.29 1015.39 1015.66 1015.20 1016.01 1016.62 1016.46 1016.68 1017.55 1017.64 1018.17 1017.52 1018.23 1018.70 1018.01 1018.05 1018.34 1019.33 1019.94 1021.85 1022.70 1023.64 1024.09 1024.53 1024.94 1025.02 1024.72 1024.81 1024.76
1017.25 1016.73 1016.35 1016.06 1016.10 1016.22 1016.28 1016.30 1016.19 1015.91 1015.82 1015.78 1015.80 1015.82 1016.04 1016.33 1016.33 1017.00 1016.87 1017.39 1017.83 1018.15 1018.41 1018.86 1019.55 1019.31 1020.53 1019.42 1019.84 1019.00 1019.40 1021.00 1020.44 1021.51 1022.06 1023.05 1024.13 1024.64 1024.72 1024.82 1024.73 1024.82 1024.59
1017.78 1017.39 1017.20 1017.07 1016.97 1016.90 1016.79 1016.67 1016.61 1016.61 1016.53 1016.70 1016.75 1016.83 1017.13 1017.35 1017.57 1017.75 1018.27 1018.97 1018.94 1019.22 1020.24 1020.88 1020.32 1020.52 1020.60 1020.40 1021.80 1020.76 1020.48 1020.61 1020.86 1022.21 1022.40 1023.50 1024.58 1024.71 1025.09 1025.00 1024.44 1024.61 1024.26
1018.19 1017.90 1017.79 1017.84 1017.71 1017.64 1017.54 1017.52 1017.57 1017.56 1017.64 1017.71 1017.74 1018.00 1018.30 1018.53 1019.05 1019.28 1019.45 1019.47 1019.95 1020.74 1021.50 1021.18 1021.44 1021.89 1020.23 1020.43 1022.18 1021.66 1021.29 1021.54 1021.94 1022.83 1022.99 1024.16 1024.75 1025.23 1025.44 1025.23 1024.79 1024.60 1023.70
1018.83 1018.75 1018.72 1018.70 1018.69 1018.68 1018.63 1018.71 1018.79 1018.96 1019.05 1019.07 1019.29 1019.65 1019.85 1020.06 1020.20 1020.27 1020.63 1020.52 1021.25 1021.43 1021.54 1021.85 1022.00 1021.31 1021.71 1022.61 1022.38 1022.32 1021.87 1021.92 1021.82 1022.92 1023.93 1024.29 1024.78 1025.31 1025.39 1025.46 1025.10 1024.72 1024.73
1019.73 1019.75 1019.72 1019.71 1019.68 1019.73 1019.88 1019.97 1020.15 1020.31 1020.37 1020.50 1020.79 1020.87 1020.82 1020.84 1020.97 1021.09 1021.07 1021.24 1021.39 1021.56 1021.31 1021.81 1022.51 1022.75 1022.56 1022.33 1022.35 1022.64 1022.95 1022.87 1023.01 1023.51 1024.01 1024.70 1025.20 1025.30 1025.53 1025.28 1025.04 1025.31 1025.29
1020.59 1020.68 1020.73 1020.68 1020.67 1020.78 1020.91 1020.98 1021.03 1021.11 1021.20 1021.21 1021.36 1021.42 1021.50 1021.54 1021.52 1021.48 1021.62 1021.75 1022.14 1022.49 1022.48 1022.69 1023.02 1023.07 1022.84 1022.84 1023.16 1023.41 1023.53 1023.50 1023.90 1024.27 1024.90 1025.35 1025.31 1025.09 1024.97 1024.46 1024.75 1025.20 1025.32
1021.23 1021.35 1021.40 1021.44 1021.52 1021.67 1021.72 1021.73 1021.74 1021.83 1021.76 1021.68 1021.77 1021.89 1021.93 1021.91 1021.74 1021.55 1021.62 1021.85 1022.44 1022.77 1023.05 1023.35 1023.37 1023.31 1023.10 1023.10 1023.33 1023.53 1023.69 1024.02 1024.39 1024.40 1024.59 1024.55 1024.42 1024.44 1024.30 1024.59 1025.17 1025.58 1025.55
1021.67 1021.77 1021.79 1021.82 1021.90 1022.04 1022.16 1022.20 1022.21 1022.15 1022.10 1022.13 1022.18 1022.24 1022.32 1022.21 1022.02 1021.88 1022.05 1022.38 1022.80 1023.36 1023.82 1024.02 1023.86 1023.66 1023.46 1023.25 1023.61 1023.93 1024.20 1024.29 1024.48 1024.50 1024.88 1024.73 1024.78 1024.94 1024.55 1024.70 1025.09 1025.93 1026.28
1022.02 1022.19 1022.29 1022.31 1022.35 1022.50 1022.66 1022.74 1022.73 1022.73 1022.80 1022.84 1022.86 1022.96 1022.91 1022.82 1022.56 1022.45 1022.63 1023.04 1023.46 1023.80 1024.02 1024.10 1024.15 1023.88 1023.40 1023.52 1023.66 1023.89 1023.99 1024.02 1024.36 1024.62 1024.68 1024.70 1024.60 1024.31 1024.23 1024.39 1024.72 1025.14 1025.19
1022.12 1022.39 1022.62 1022.67 1022.71 1022.90 1022.99 1022.99 1023.03 1023.14 1023.32 1023.47 1023.59 1023.64 1023.50 1023.41 1023.09 1023.01 1023.05 1023.34 1023.37 1023.51 1023.56 1023.69 1023.96 1023.63 1023.32 1023.45 1023.70 1023.79 1023.69 1024.02 1024.51 1024.72 1024.92 1024.57 1024.60 1024.55 1024.41 1024.40 1024.33 1024.21 1023.78
1022.63 1023.01 1023.08 1022.98 1023.09 1023.20 1023.40 1023.61 1023.59 1023.58 1023.65 1023.69 1023.67 1023.68 1023.66 1023.41 1023.20 1023.03 1023.04 1023.02 1023.05 1023.39 1023.62 1023.63 1023.63 1023.71 1023.70 1023.86 1023.89 1023.66 1024.00 1024.33 1024.61 1025.07 1024.87 1024.41 1024.32 1024.12 1023.96 1023.99 1023.59 1023.37 1023.00
1022.97 1023.33 1023.49 1023.77 1023.68 1023.57 1023.55 1023.62 1023.84 1023.72 1023.69 1023.74 1023.72 1023.66 1023.55 1023.50 1023.24 1023.30 1023.31 1023.14 1023.24 1023.44 1023.40 1023.54 1023.51 1023.33 1023.28 1023.53 1023.64 1023.40 1023.85 1024.17 1024.38 1024.55 1024.53 1024.06 1023.82 1023.51 1023.32 1023.06 1022.93 1022.67 1022.52
1022.75 1023.01 1023.19 1023.34 1023.65 1023.63 1023.50 1023.56 1023.53 1023.33 1023.35 1023.46 1023.43 1023.44 1023.40 1023.37 1023.11 1023.01 1023.01 1023.00 1022.92 1022.88 1022.96 1023.07 1023.09 1023.16 1023.49 1023.30 1023.15 1023.16 1023.33 1023.56 1023.90 1023.89 1023.94 1023.72 1023.27 1023.05 1022.67 1022.42 1022.28 1022.07 1021.93
1022.63 1022.92 1023.08 1023.28 1023.45 1023.44 1023.32 1023.08 1022.73 1022.50 1022.37 1022.36 1022.42 1022.51 1022.56 1022.54 1022.48 1022.43 1022.42 1022.35 1022.38 1022.47 1023.07 1023.03 1022.86 1022.91 1023.08 1023.00 1022.99 1022.92 1022.90 1022.92 1022.83 1022.86 1022.85 1022.69 1022.53 1022.32 1022.06 1021.72 1021.53 1021.31 1020.73
1021.68 1021.87 1022.12 1022.33 1022.36 1022.36 1022.48 1022.48 1022.52 1021.91 1021.80 1021.80 1021.80 1021.79 1021.71 1021.61 1021.59 1021.53 1021.63 1021.69 1021.64 1021.75 1021.76 1022.00 1022.08 1022.11 1021.95 1021.90 1021.95 1021.95 1021.81 1021.52 1021.57 1021.70 1021.63 1021.47 1021.58 1021.44 1021.22 1020.87 1020.50 1020.13 1019.45
1021.02 1021.21 1021.45 1021.58 1021.58 1021.70 1021.76 1021.78 1021.85 1021.92 1021.90 1021.44 1021.04 1020.91 1020.74 1020.70 1020.68 1020.68 1020.74 1020.71 1020.70 1020.63 1020.70 1020.87 1020.83 1020.70 1020.57 1020.53 1020.45 1020.43 1020.33 1020.29 1020.42 1020.42 1020.49 1020.43 1020.30 1020.25 1020.05 1019.77 1019.46 1019.09 1018.56
1020.02 1020.33 1020.45 1020.65 1020.81 1021.02 1021.27 1021.26 1021.09 1020.95 1020.72 1020.40 1020.32 1019.87 1019.62 1019.60 1019.69 1019.67 1019.72 1019.61 1019.51 1019.47 1019.47 1019.42 1019.16 1019.06 1018.91 1018.86 1018.78 1018.76 1018.77 1018.75 1018.79 1018.97 1019.07 1019.11 1018.94 1018.96 1018.69 1018.48 1018.20 1017.93 1017.56
1019.00 1019.06 1019.32 1019.64 1019.97 1020.25 1020.44 1020.38 1020.28 1020.05 1019.74 1019.54 1019.31 1018.79 1019.05 1019.51 1019.22 1018.72 1018.77 1018.60 1018.39 1018.04 1017.82 1017.68 1017.37 1017.22 1017.15 1017.19 1017.20 1017.24 1017.27 1017.39 1017.47 1017.46 1017.55 1017.64 1017.61 1017.64 1017.32 1017.14 1016.97 1016.70 1016.21
1017.84 1018.26 1018.35 1018.84 1018.98 1019.00 1019.06 1019.16 1019.15 1019.05 1018.75 1018.44 1017.68 1017.44 1017.78 1018.10 1017.79 1017.67 1017.53 1017.34 1017.12 1016.88 1016.53 1016.27 1016.06 1015.89 1015.80 1015.81 1015.84 1015.86 1015.90 1015.98 1016.10 1016.15 1016.12 1016.14 1016.12 1015.99 1015.74 1015.68 1015.57 1015.33 1014.83
1016.53 1016.85 1017.25 1017.37 1017.55 1017.73 1017.66 1017.64 1017.55 1017.51 1017.28 1016.93 1016.58 1016.63 1016.55 1016.48 1016.33 1016.07 1015.92 1015.75 1015.53 1015.27 1015.00 1014.86 1014.69 1014.55 1014.44 1014.41 1014.47 1014.56 1014.64 1014.79 1014.89 1014.93 1014.89 1014.80 1014.66 1014.45 1014.37 1014.44 1014.30 1013.91 1013.49
1015.42 1015.77 1016.01 1016.26 1016.42 1016.52 1016.58 1016.49 1016.47 1016.24 1016.02 1015.98 1015.81 1015.66 1015.61 1015.33 1015.12 1014.92 1014.57 1014.28 1014.09 1013.90 1013.79 1013.73 1013.54 1013.33 1013.16 1013.10 1013.13 1013.24 1013.27 1013.29 1013.36 1013.56 1013.56 1013.47 1013.31 1013.15 1013.28 1013.18 1012.90 1012.53 1012.15
1014.39 1014.72 1014.89 1015.06 1015.32 1015.49 1015.52 1015.48 1015.39 1015.33 1015.23 1015.05 1014.99 1014.82 1014.57 1014.32 1014.08 1013.73 1013.52 1013.27 1013.11 1012.94 1012.75 1012.66 1012.52 1012.36 1012.24 1012.12 1012.09 1012.15 1012.23 1012.22 1012.31 1012.36 1012.43 1012.29 1012.04 1012.11 1012.14 1011.88 1011.57 1011.11 1010.65
1014.07 1014.33 1014.46 1014.50 1014.57 1014.56 1014.67 1014.61 1014.50 1014.34 1014.19 1014.05 1013.95 1013.75 1013.56 1013.36 1013.12 1012.85 1012.71 1012.55 1012.36 1012.21 1011.98 1011.75 1011.56 1011.36 1011.31 1011.13 1011.04 1010.94 1011.03 1011.12 1011.15 1011.02 1010.99 1011.14 1011.02 1010.85 1010.66 1010.52 1009.95 1009.35 1008.86
1013.63 1013.80 1013.89 1013.96 1013.91 1013.88 1013.76 1013.59 1013.50 1013.43 1013.32 1013.23 1013.01 1012.86 1012.62 1012.34 1012.27 1012.06 1011.85 1011.63 1011.44 1011.32 1011.13 1010.94 1010.67 1010.54 1010.33 1010.24 1010.06 1010.04 1009.95 1009.80 1009.73 1009.64 1009.64 1009.56 1009.38 1009.15 1009.18 1008.63 1007.93 1007.60 1006.93
Wind_Speed
4 4 6 7 7 7 7 7 8 7 6 9 9 9 9 10 10 13 14 11 15 12 12 11 15 11 7 8 7 6 6 4 7 3 2 6 4 4 3 1 1 2 2
6 5 7 8 9 8 9 9 8 9 10 10 11 12 12 12 12 14 14 12 14 14 12 12 11 10 11 9 8 11 10 6 5 9 5 5 2 3 0 2 2 3 3
6 7 8 9 9 9 9 9 9 11 11 12 12 14 14 14 15 13 15 15 15 14 13 12 10 10 8 8 7 9 8 3 6 6 6 3 2 1 0 2 2 3 5
7 9 10 9 9 9 10 11 11 11 13 13 13 13 13 12 12 13 14 14 14 15 13 10 11 11 9 9 6 8 6 8 9 6 6 4 2 1 1 2 1 2 7
8 10 11 10 10 10 11 11 11 12 12 13 14 14 13 12 9 11 12 13 14 13 11 12 12 12 25 18 5 7 7 7 6 5 5 2 2 1 1 2 2 5 8
9 10 9 9 10 11 12 12 12 12 12 13 13 12 12 9 20 20 12 11 10 10 11 10 9 12 17 16 18 18 12 6 8 3 2 2 3 0 1 2 3 3 5
10 10 10 9 10 11 11 11 11 11 11 12 11 11 11 10 18 18 18 9 10 9 10 10 8 7 7 8 14 15 13 15 12 4 4 3 1 1 2 2 2 2 5
9 9 8 9 10 10 9 10 9 8 8 8 10 10 9 9 16 17 17 10 10 9 9 9 8 7 8 7 7 8 7 7 7 4 2 2 4 5 4 2 3 4 5
7 7 6 7 8 8 8 8 6 6 7 8 7 8 8 7 12 13 11 8 9 8 8 7 7 6 11 12 7 7 6 5 4 5 5 9 11 12 10 2 3 3 4
4 5 4 4 6 5 4 4 2 3 6 5 8 6 7 7 12 12 9 5 6 5 4 5 8 6 9 10 5 4 3 3 4 3 3 6 7 7 10 1 3 3 3
3 5 4 4 5 5 4 3 4 4 5 5 6 5 5 5 6 10 9 5 3 2 2 2 1 4 8 6 5 1 2 3 4 2 3 3 3 4 3 3 5 5 4
5 5 4 3 3 3 4 2 3 4 4 4 3 2 2 3 5 5 7 7 5 2 3 1 1 5 7 7 4 7 8 4 1 2 2 4 3 3 3 3 4 4 6
4 3 2 2 2 2 3 2 2 1 2 2 2 2 2 1 0 2 2 2 3 2 1 3 5 6 7 5 8 8 3 1 1 2 4 5 3 3 3 3 6 7 11
5 3 2 2 1 1 0 1 1 1 1 1 1 2 2 1 2 2 2 2 4 3 4 3 4 6 7 6 3 4 2 3 3 4 5 6 5 4 6 4 6 7 7
4 4 3 3 3 2 2 3 2 3 4 3 4 4 3 4 5 9 6 3 3 3 2 2 2 1 3 3 3 3 2 2 4 4 6 7 7 6 8 5 6 6 8
5 4 3 3 3 3 3 3 10 12 12 14 11 7 3 9 8 10 11 10 11 11 2 3 3 3 5 5 5 6 4 6 7 6 7 7 7 7 8 8 6 7 10
7 6 5 5 5 5 4 3 4 5 15 15 15 16 17 13 14 16 16 17 15 13 5 4 6 6 8 7 7 7 8 6 7 7 8 8 7 8 8 8 8 8 10
7 7 6 5 6 5 5 5 4 4 5 5 13 17 19 20 21 20 19 16 8 10 7 9 9 9 9 9 8 9 8 7 6 7 7 8 7 8 8 9 9 10 10
9 8 6 4 5 6 5 5 6 6 8 8 3 9 11 21 21 22 22 10 10 10 9 10 10 10 9 9 9 9 9 9 8 7 7 8 8 7 9 9 10 13 13
9 10 8 8 6 5 5 6 7 8 9 8 8 10 3 2 6 10 9 9 10 11 10 11 11 10 10 10 9 9 8 8 8 8 8 8 8 8 10 10 9 10 11
8 7 11 7 8 8 9 10 9 9 10 9 11 9 15 9 9 9 9 10 11 11 11 10 10 10 9 9 9 9 9 9 9 9 8 8 9 9 10 10 10 11 11
8 8 8 11 9 9 10 9 10 10 11 11 10 9 20 11 10 10 10 11 10 11 10 10 9 10 10 9 9 9 9 9 9 9 9 9 9 10 9 9 10 11 11
9 10 9 8 9 9 9 10 10 10 10 10 9 9 7 9 10 10 11 10 9 9 8 9 10 10 9 8 8 9 9 10 9 8 9 9 9 9 8 9 11 11 11
9 10 10 9 8 9 10 10 9 11 10 9 9 9 9 9 9 11 11 9 9 9 9 9 9 10 9 9 8 7 8 9 8 9 13 11 10 10 9 11 11 14 13
6 7 8 8 8 8 8 8 8 9 9 9 9 8 9 9 10 10 9 9 8 8 9 8 8 10 11 12 13 14 13 15 14 14 9 9 12 14 13 11 13 14 16
4 4 4 4 5 6 7 7 7 8 8 8 7 8 8 9 9 8 8 8 7 7 8 7 8 12 13 12 13 13 15 17 16 17 12 11 12 12 11 15 19 14 16
Wind_Direction
348 11 37 44 46 52 56 52 53 57 49 62 64 68 70 76 78 84 79 82 81 74 63 56 63 44 51 48 64 57 65 60 111 96 113 111 152 183 163 87 285 279 284
5 36 49 52 51 54 54 53 55 62 58 63 70 71 67 66 73 73 79 72 79 66 71 63 71 59 49 51 56 63 57 21 104 143 123 145 152 132 120 302 288 267 271
19 42 48 52 56 58 63 66 65 65 64 67 70 71 70 67 70 75 72 74 72 69 58 53 63 70 46 67 34 71 86 81 82 122 115 82 106 124 175 271 296 316 300
49 59 56 53 59 63 68 67 65 66 69 66 65 68 67 68 69 72 79 83 79 74 75 73 67 74 87 68 41 54 78 81 75 82 75 92 88 77 221 265 340 299 310
58 62 55 52 54 60 61 61 62 64 64 65 66 63 65 66 65 75 76 77 79 82 76 66 66 72 71 68 73 48 63 90 90 91 84 100 104 104 345 333 321 316 304
44 52 50 50 56 56 57 58 60 61 63 64 63 66 72 74 82 82 80 81 81 82 87 81 68 61 69 81 76 73 68 71 78 79 89 105 83 151 352 318 335 9 333
45 43 44 47 54 56 56 59 63 65 73 72 71 72 71 78 85 83 78 75 73 66 67 73 73 64 57 58 60 64 58 64 67 71 67 64 350 62 279 280 326 284 270
53 46 44 51 55 55 57 59 61 64 70 78 73 68 73 75 83 87 88 87 81 72 68 68 73 60 64 61 65 68 63 65 58 54 63 275 240 242 226 282 314 296 294
68 59 51 54 61 57 57 56 54 67 75 80 85 88 85 77 73 77 78 76 78 75 68 45 56 52 47 47 55 48 40 45 20 0 337 325 318 312 310 4 351 39 317
83 80 69 74 85 76 68 69 69 82 79 78 77 60 72 72 67 68 69 66 73 71 78 81 56 56 45 37 50 37 18 340 328 317 330 318 311 291 296 244 148 199 220
86 90 88 80 87 87 79 58 70 69 75 67 74 53 48 55 77 82 90 84 97 117 126 123 108 30 26 16 17 80 221 271 326 8 310 289 283 281 264 235 207 195 202
117 107 90 61 91 91 90 53 65 80 73 60 82 66 54 48 85 87 96 104 103 111 86 82 235 313 337 338 349 314 311 354 25 323 311 297 281 267 244 240 228 224 237
98 106 95 74 88 126 113 107 59 94 146 181 172 166 195 203 345 81 71 60 51 60 152 233 305 314 315 326 308 304 13 57 301 297 277 283 255 257 279 271 270 259 260
132 149 144 140 144 348 87 191 170 213 241 182 225 228 217 218 232 234 230 224 220 207 215 202 276 302 305 292 279 290 204 201 207 245 263 272 285 276 274 254 271 281 270
157 170 178 191 193 213 242 205 233 244 192 196 222 199 186 230 226 214 205 212 215 234 112 9 358 340 282 272 273 251 232 219 233 239 247 254 261 266 269 268 252 260 256
175 182 190 182 187 198 193 245 244 234 233 234 236 213 251 245 247 239 239 256 259 259 96 216 236 226 243 245 244 252 227 230 234 235 242 247 254 266 271 271 258 254 267
185 187 191 196 198 194 205 208 246 276 243 242 244 244 240 230 238 239 243 252 251 253 237 225 238 234 242 234 235 232 246 223 222 226 236 245 249 250 254 261 265 266 270
195 201 192 196 204 200 202 210 207 208 235 251 249 243 248 246 247 247 251 260 257 250 232 240 243 239 234 232 232 235 238 234 218 231 235 239 241 246 258 260 263 265 269
196 211 207 204 197 204 201 212 220 223 232 240 242 247 245 246 247 250 249 244 245 245 238 240 240 240 237 230 234 234 233 236 230 222 228 237 245 244 253 257 260 262 265
204 208 202 207 212 201 206 215 220 225 233 237 235 238 215 131 230 237 235 239 241 243 242 239 243 243 237 233 235 233 234 233 235 232 235 240 242 236 247 252 254 262 264
202 203 209 210 212 212 218 221 230 232 238 243 243 231 211 208 233 231 232 229 234 241 245 247 249 248 248 247 243 241 239 242 239 240 238 241 244 248 248 250 255 257 262
200 205 198 213 216 219 224 225 226 231 236 241 251 245 242 239 236 236 235 239 241 240 242 247 247 246 248 247 246 244 243 243 243 242 242 242 244 247 252 252 254 259 262
208 210 211 212 217 223 229 231 233 234 240 243 246 248 235 238 243 245 250 250 247 245 243 245 252 256 252 248 246 246 249 249 247 246 248 252 248 251 251 255 257 261 261
210 215 219 222 220 221 229 236 237 238 242 244 245 247 246 244 245 250 253 255 254 254 254 256 257 258 260 252 248 240 241 251 251 248 249 255 256 258 253 254 257 259 262
211 220 225 228 230 231 238 239 238 239 239 241 246 246 249 253 258 258 258 256 257 258 256 252 252 255 257 257 255 251 246 253 254 249 245 238 248 251 253 256 256 260 262
197 201 217 218 234 238 241 243 242 245 249 248 245 249 256 259 258 257 257 258 257 253 251 251 254 254 256 260 261 256 255 257 256 254 246 244 246 250 248 249 255 255 261